Location: Cedar Brake
(32.2526°N, 97.8459°W)
Time: 21:25:04
(UTC+00:00)

MOS 1 - Pass Details

Date: 22 April 2026
Orbit: 877 x 888 km, 98.8° (Epoch: 21 May)

Event Time Altitude Azimuth Distance (km) Brightness Sun altitude
Exits shadow 03:03:24 40° 174° (S) 1,278 4.8 -23.6°
Maximum altitude 03:05:34 82° 257° (WSW) 891 4.2 -24.0°
Drops below altitude 10° 03:11:14 10° 345° (NNW) 2,541 7.3 -25.0°
Sets 03:13:38 0° 346° (NNW) 3,485 8.1 -25.4°
